STARLINK-1609 (47621 NORAD) Tracking and Keplerian Element Data

This shows tracking and keplerian element data for the satellite.

Feedback or suggestion? Click here.




ElementValue
Catalog47621
NameSTARLINK-1609
Epoch Orbit175
Epoch Day101.91668981
Epoch Year2021
RAAN199.6764
Inclination53.0529
Eccentricity0.000128
Argument of Perigee71.7563
Mean Anonmoly66.3115
Mean Motion15.06412027
Decay Rate-0.00033188
L11 47621U 21012B 21101.91668981 -.00033188 00000-0 -22188-2 0 9997
L22 47621 53.0529 199.6764 0001280 71.7563 66.3115 15.06412027 1751

Live tracking and technical data element details for STARLINK-1609 (NORAD 47621). STARLINK-1609 can be tracked NOW for your location showing map with azimuth and elevation plus other details from your city location.

Track the satellite on the map from your city or location and see movement details for azimuth, elevation, latitude, longitude, range, height, and movement on the map or in text.







IsCatalogInMostPopularTable: catalog: 47621, numindb: 14
Update: records affected: 1



GetName: 47621 STARLINK-1609

Hit Count: updated at: Tue, 13 Apr 2021 03:33:34 GMT